Tecumseh — WTW9257 — position and weather

sailwx.info

Track history (hours):
 
Tides and Currents Weather Stations Pressure Air Temp Water Temp Dewpoint Dewpoint Depression Visibility Wind Speed Wind Dir Waves Ship Positions

Tecumseh

More information available from US FCC via Universal Licensing System and Coast Guard Vessel Documentation Center.

Last reported at 2014-Jul-28 02:33 UTC. Time now 2014-Jul-28 20:31 UTC.
Position N 47°16' W 122°22'.

Length 90 m; draft 4.9 m.

Type: Tow > 200 m length. MMSI: 367133160.

Date/timePositionNaut miles runAvg speedWind from/ knotsBaromVisibWave heightAir tempDewpointWater temp
2014-Jul-28 02:33N 47°16' W 122°22'0 0.0
2014-Jul-28 01:33N 47°16' W 122°22'  
2014-Jul-25 19:33N 47°21' W 122°25'7 9.3
2014-Jul-25 18:46N 47°28' W 122°26'211.2
2014-Jul-25 18:33N 47°31' W 122°26'110.9
2014-Jul-25 18:26N 47°32' W 122°27'5 5.6
2014-Jul-25 17:31N 47°35' W 122°21'0 0.0
2014-Jul-25 16:33N 47°35' W 122°21'5 5.9
2014-Jul-25 15:37N 47°30' W 122°25'111.7
2014-Jul-25 15:33N 47°30' W 122°25'0 6.8
2014-Jul-25 15:32N 47°30' W 122°25'8 8.6
2014-Jul-25 14:33N 47°21' W 122°23'4 0.4
2014-Jul-25 04:18N 47°17' W 122°24'1 1.9
2014-Jul-25 03:33N 47°17' W 122°26'1 0.7
2014-Jul-25 02:33N 47°17' W 122°27'1 1.0
2014-Jul-25 01:33N 47°18' W 122°28'3 2.9
2014-Jul-25 00:33N 47°20' W 122°27'6 6.0
2014-Jul-24 23:33N 47°26' W 122°24'2 7.9
2014-Jul-24 23:16N 47°28' W 122°25'6 8.0
2014-Jul-24 22:33N 47°34' W 122°28'0 7.7
2014-Jul-24 22:31N 47°34' W 122°28'8 8.1
2014-Jul-24 21:33N 47°42' W 122°28'0 8.2
2014-Jul-24 21:31N 47°42' W 122°28'8 8.0
2014-Jul-24 20:33N 47°50' W 122°28'0 7.6
2014-Jul-24 20:31N 47°50' W 122°28'8 7.9
2014-Jul-24 19:33N 47°57' W 122°34'10 8.2
2014-Jul-24 18:19N 48°06' W 122°40'6 7.7
2014-Jul-24 17:32N 48°10' W 122°46'8 7.1
2014-Jul-24 16:24N 48°12' W 122°58'6 6.6
2014-Jul-24 15:31N 48°12' W 123°07'6 6.1
2014-Jul-24 14:33N 48°12' W 123°16'5 5.2
2014-Jul-24 13:30N 48°12' W 123°24'5 5.7
2014-Jul-24 12:33N 48°12' W 123°32'6 5.6
2014-Jul-24 11:33N 48°12' W 123°40'6 6.4
2014-Jul-24 10:33N 48°12' W 123°50'8 7.4
2014-Jul-24 09:32N 48°14' W 124°01'8 7.5
2014-Jul-24 08:32N 48°17' W 124°11'7 6.8
2014-Jul-24 07:33N 48°20' W 124°20'7 7.1
2014-Jul-24 06:33N 48°23' W 124°30'7 7.0
2014-Jul-24 05:33N 48°26' W 124°40'8 7.4
2014-Jul-24 04:31N 48°27' W 124°51'136 6.5
2014-Jul-23 07:33N 46°12' W 124°25'7 7.5
2014-Jul-23 06:32N 46°05' W 124°23'8 7.9
2014-Jul-23 05:31N 45°57' W 124°23'9 7.7
2014-Jul-23 04:23N 45°48' W 124°24'7 7.8
2014-Jul-23 03:31N 45°41' W 124°24'  
2014-Jul-20 14:22N 38°20' W 124°00'6 7.2
2014-Jul-20 13:33N 38°15' W 123°57'7 7.3
2014-Jul-20 12:33N 38°08' W 123°53'7 7.3
2014-Jul-20 11:33N 38°01' W 123°49'7 7.4
2014-Jul-20 10:33N 37°55' W 123°46'8 7.3
2014-Jul-20 09:31N 37°48' W 123°42'7 7.1
2014-Jul-20 08:33N 37°41' W 123°38'8 7.0
2014-Jul-20 07:22N 37°35' W 123°32'6 7.4
2014-Jul-20 06:33N 37°33' W 123°25'7 7.2
2014-Jul-20 05:33N 37°31' W 123°16'7 6.8
2014-Jul-20 04:33N 37°33' W 123°08'7 7.4
2014-Jul-20 03:33N 37°37' W 123°00'8 7.2
2014-Jul-20 02:30N 37°41' W 122°52'7 7.7
2014-Jul-20 01:33N 37°45' W 122°44'7 7.1
2014-Jul-20 00:33N 37°47' W 122°35'6 5.6
2014-Jul-19 23:33N 37°49' W 122°29'4 4.4
2014-Jul-19 22:33N 37°52' W 122°25'4 3.8
2014-Jul-19 21:34N 37°55' W 122°26'3 3.2
2014-Jul-19 20:33N 37°54' W 122°22'1 0.7
2014-Jul-19 19:33N 37°55' W 122°22'0 0.0
2014-Jul-19 18:33N 37°55' W 122°22'0 0.0
2014-Jul-19 17:33N 37°55' W 122°22'0 0.0
2014-Jul-19 16:33N 37°55' W 122°22'0 0.0
2014-Jul-19 15:33N 37°55' W 122°22'0 0.0
2014-Jul-19 14:33N 37°55' W 122°22'0 0.0
2014-Jul-19 13:33N 37°55' W 122°22'0 0.0
2014-Jul-19 12:33N 37°55' W 122°22'0 0.0
2014-Jul-19 11:33N 37°55' W 122°22'0 0.0
2014-Jul-19 10:33N 37°55' W 122°22'0 0.0
2014-Jul-19 09:33N 37°55' W 122°22'0 0.0
2014-Jul-19 08:30N 37°55' W 122°22'0 0.0
2014-Jul-19 07:33N 37°55' W 122°22'0 0.0
2014-Jul-19 06:32N 37°55' W 122°22'0 0.0
2014-Jul-19 05:33N 37°55' W 122°22'0 0.0
2014-Jul-19 04:33N 37°55' W 122°22'0 0.0
2014-Jul-19 03:32N 37°55' W 122°22'0 0.0
2014-Jul-19 02:32N 37°55' W 122°22'0 0.0
2014-Jul-19 01:33N 37°55' W 122°22'0 0.0
2014-Jul-19 00:32N 37°55' W 122°22'0 0.0
2014-Jul-18 23:32N 37°55' W 122°22'0 0.0
2014-Jul-18 22:32N 37°55' W 122°22'0 0.0
2014-Jul-18 21:33N 37°55' W 122°22'3 3.2
2014-Jul-18 20:34N 37°54' W 122°26'4 4.4
2014-Jul-18 19:34N 37°49' W 122°25'6 6.1
2014-Jul-18 18:33N 37°48' W 122°32'5 5.3
2014-Jul-18 17:34N 37°46' W 122°38'6 6.1
2014-Jul-18 16:33N 37°42' W 122°44'6 6.4
2014-Jul-18 15:33N 37°38' W 122°51'6 5.9
2014-Jul-18 14:33N 37°35' W 122°57'6 6.1
2014-Jul-18 13:33N 37°32' W 123°03'7 5.6
2014-Jul-18 12:18N 37°28' W 123°11'4 5.6
2014-Jul-18 11:33N 37°27' W 123°16'6 5.6
2014-Jul-18 10:33N 37°26' W 123°23'5 5.5
2014-Jul-18 09:33N 37°27' W 123°30'7 5.7
2014-Jul-18 08:18N 37°29' W 123°38'7 5.7
2014-Jul-18 07:08N 37°35' W 123°42'16 5.7
2014-Jul-18 04:25N 37°49' W 123°48'8 5.9
2014-Jul-18 03:04N 37°57' W 123°52'  
Track history (hours):
 
Tides and Currents Weather Stations Pressure Air Temp Water Temp Dewpoint Dewpoint Depression Visibility Wind Speed Wind Dir Waves Ship Positions

Tecumseh

More information available from US FCC via Universal Licensing System and Coast Guard Vessel Documentation Center.

Last reported at 2014-Jul-28 02:33 UTC. Time now 2014-Jul-28 20:31 UTC.
Position N 47°16' W 122°22'.

Length 90 m; draft 4.9 m.

Type: Tow > 200 m length. MMSI: 367133160.

Date/timePositionNaut miles runAvg speedWind from/ knotsBaromVisibWave heightAir tempDewpointWater temp
2014-Jul-28 02:33N 47°16' W 122°22'0 0.0
2014-Jul-28 01:33N 47°16' W 122°22'  
2014-Jul-25 19:33N 47°21' W 122°25'7 9.3
2014-Jul-25 18:46N 47°28' W 122°26'211.2
2014-Jul-25 18:33N 47°31' W 122°26'110.9
2014-Jul-25 18:26N 47°32' W 122°27'5 5.6
2014-Jul-25 17:31N 47°35' W 122°21'0 0.0
2014-Jul-25 16:33N 47°35' W 122°21'5 5.9
2014-Jul-25 15:37N 47°30' W 122°25'111.7
2014-Jul-25 15:33N 47°30' W 122°25'0 6.8
2014-Jul-25 15:32N 47°30' W 122°25'8 8.6
2014-Jul-25 14:33N 47°21' W 122°23'4 0.4
2014-Jul-25 04:18N 47°17' W 122°24'1 1.9
2014-Jul-25 03:33N 47°17' W 122°26'1 0.7
2014-Jul-25 02:33N 47°17' W 122°27'1 1.0
2014-Jul-25 01:33N 47°18' W 122°28'3 2.9
2014-Jul-25 00:33N 47°20' W 122°27'6 6.0
2014-Jul-24 23:33N 47°26' W 122°24'2 7.9
2014-Jul-24 23:16N 47°28' W 122°25'6 8.0
2014-Jul-24 22:33N 47°34' W 122°28'0 7.7
2014-Jul-24 22:31N 47°34' W 122°28'8 8.1
2014-Jul-24 21:33N 47°42' W 122°28'0 8.2
2014-Jul-24 21:31N 47°42' W 122°28'8 8.0
2014-Jul-24 20:33N 47°50' W 122°28'0 7.6
2014-Jul-24 20:31N 47°50' W 122°28'8 7.9
2014-Jul-24 19:33N 47°57' W 122°34'10 8.2
2014-Jul-24 18:19N 48°06' W 122°40'6 7.7
2014-Jul-24 17:32N 48°10' W 122°46'8 7.1
2014-Jul-24 16:24N 48°12' W 122°58'6 6.6
2014-Jul-24 15:31N 48°12' W 123°07'6 6.1
2014-Jul-24 14:33N 48°12' W 123°16'5 5.2
2014-Jul-24 13:30N 48°12' W 123°24'5 5.7
2014-Jul-24 12:33N 48°12' W 123°32'6 5.6
2014-Jul-24 11:33N 48°12' W 123°40'6 6.4
2014-Jul-24 10:33N 48°12' W 123°50'8 7.4
2014-Jul-24 09:32N 48°14' W 124°01'8 7.5
2014-Jul-24 08:32N 48°17' W 124°11'7 6.8
2014-Jul-24 07:33N 48°20' W 124°20'7 7.1
2014-Jul-24 06:33N 48°23' W 124°30'7 7.0
2014-Jul-24 05:33N 48°26' W 124°40'8 7.4
2014-Jul-24 04:31N 48°27' W 124°51'136 6.5
2014-Jul-23 07:33N 46°12' W 124°25'7 7.5
2014-Jul-23 06:32N 46°05' W 124°23'8 7.9
2014-Jul-23 05:31N 45°57' W 124°23'9 7.7
2014-Jul-23 04:23N 45°48' W 124°24'7 7.8
2014-Jul-23 03:31N 45°41' W 124°24'  
2014-Jul-20 14:22N 38°20' W 124°00'6 7.2
2014-Jul-20 13:33N 38°15' W 123°57'7 7.3
2014-Jul-20 12:33N 38°08' W 123°53'7 7.3
2014-Jul-20 11:33N 38°01' W 123°49'7 7.4
2014-Jul-20 10:33N 37°55' W 123°46'8 7.3
2014-Jul-20 09:31N 37°48' W 123°42'7 7.1
2014-Jul-20 08:33N 37°41' W 123°38'8 7.0
2014-Jul-20 07:22N 37°35' W 123°32'6 7.4
2014-Jul-20 06:33N 37°33' W 123°25'7 7.2
2014-Jul-20 05:33N 37°31' W 123°16'7 6.8
2014-Jul-20 04:33N 37°33' W 123°08'7 7.4
2014-Jul-20 03:33N 37°37' W 123°00'8 7.2
2014-Jul-20 02:30N 37°41' W 122°52'7 7.7
2014-Jul-20 01:33N 37°45' W 122°44'7 7.1
2014-Jul-20 00:33N 37°47' W 122°35'6 5.6
2014-Jul-19 23:33N 37°49' W 122°29'4 4.4
2014-Jul-19 22:33N 37°52' W 122°25'4 3.8
2014-Jul-19 21:34N 37°55' W 122°26'3 3.2
2014-Jul-19 20:33N 37°54' W 122°22'1 0.7
2014-Jul-19 19:33N 37°55' W 122°22'0 0.0
2014-Jul-19 18:33N 37°55' W 122°22'0 0.0
2014-Jul-19 17:33N 37°55' W 122°22'0 0.0
2014-Jul-19 16:33N 37°55' W 122°22'0 0.0
2014-Jul-19 15:33N 37°55' W 122°22'0 0.0
2014-Jul-19 14:33N 37°55' W 122°22'0 0.0
2014-Jul-19 13:33N 37°55' W 122°22'0 0.0
2014-Jul-19 12:33N 37°55' W 122°22'0 0.0
2014-Jul-19 11:33N 37°55' W 122°22'0 0.0
2014-Jul-19 10:33N 37°55' W 122°22'0 0.0
2014-Jul-19 09:33N 37°55' W 122°22'0 0.0
2014-Jul-19 08:30N 37°55' W 122°22'0 0.0
2014-Jul-19 07:33N 37°55' W 122°22'0 0.0
2014-Jul-19 06:32N 37°55' W 122°22'0 0.0
2014-Jul-19 05:33N 37°55' W 122°22'0 0.0
2014-Jul-19 04:33N 37°55' W 122°22'0 0.0
2014-Jul-19 03:32N 37°55' W 122°22'0 0.0
2014-Jul-19 02:32N 37°55' W 122°22'0 0.0
2014-Jul-19 01:33N 37°55' W 122°22'0 0.0
2014-Jul-19 00:32N 37°55' W 122°22'0 0.0
2014-Jul-18 23:32N 37°55' W 122°22'0 0.0
2014-Jul-18 22:32N 37°55' W 122°22'0 0.0
2014-Jul-18 21:33N 37°55' W 122°22'3 3.2
2014-Jul-18 20:34N 37°54' W 122°26'4 4.4
2014-Jul-18 19:34N 37°49' W 122°25'6 6.1
2014-Jul-18 18:33N 37°48' W 122°32'5 5.3
2014-Jul-18 17:34N 37°46' W 122°38'6 6.1
2014-Jul-18 16:33N 37°42' W 122°44'6 6.4
2014-Jul-18 15:33N 37°38' W 122°51'6 5.9
2014-Jul-18 14:33N 37°35' W 122°57'6 6.1
2014-Jul-18 13:33N 37°32' W 123°03'7 5.6
2014-Jul-18 12:18N 37°28' W 123°11'4 5.6
2014-Jul-18 11:33N 37°27' W 123°16'6 5.6
2014-Jul-18 10:33N 37°26' W 123°23'5 5.5
2014-Jul-18 09:33N 37°27' W 123°30'7 5.7
2014-Jul-18 08:18N 37°29' W 123°38'7 5.7
2014-Jul-18 07:08N 37°35' W 123°42'16 5.7
2014-Jul-18 04:25N 37°49' W 123°48'8 5.9
2014-Jul-18 03:04N 37°57' W 123°52'  

Dump ship's entire track history